FW7345 Weather Reports


Display with metric or nautical units.
time (UTC)temp
F
wind
direction
speed
MPH
gust
MPH
rain 1hr
in
rain 24hr
in
rain mn
in
humidity
%
barometer
mb
20260901231600 90 0 0.0 2.0 0.00 0.00 0.00 65 1012.7
20260901230109 90 0 0.0 3.0 0.00 0.00 0.00 64 1012.5
20260901224601 90 0 0.0 3.0 0.00 0.00 0.00 64 1012.4
20260901223101 90 0 0.0 4.0 0.00 0.00 0.00 65 1012.6
20260901221600 90 0 0.0 5.0 0.00 0.00 0.00 64 1012.7
20260901220109 91 0 0.0 5.0 0.00 0.00 0.00 65 1012.8
20260901214606 93 79 1.0 4.0 0.00 0.00 0.00 62 1012.9
20260901213058 94 131 1.0 3.0 0.00 0.00 0.00 60 1012.9
20260901211600 94 0 1.0 6.0 0.00 0.00 0.00 57 1012.8
20260901210105 95 65 2.0 7.0 0.00 0.00 0.00 58 1012.7
20260901204604 94 136 4.0 10.0 0.00 0.00 0.00 60 1012.9
20260901203105 93 78 2.0 11.0 0.00 0.00 0.00 63 1013.1
20260901201606 93 89 1.0 10.0 0.00 0.00 0.00 63 1013.4
20260901200110 93 101 0.0 5.0 0.00 0.00 0.00 64 1013.7
20260901194603 92 67 1.0 5.0 0.00 0.00 0.00 64 1013.9
20260901193111 92 120 1.0 7.0 0.00 0.00 0.00 66 1014.1
20260901191604 92 136 0.0 4.0 0.00 0.00 0.00 69 1014.2
20260901190120 91 201 2.0 5.0 0.00 0.00 0.00 69 1014.2
20260901184603 91 77 3.0 8.0 0.00 0.00 0.00 68 1014.4
20260901183102 91 0 0.0 5.0 0.00 0.00 0.00 70 1014.5
20260901181604 89 20 3.0 8.0 0.00 0.00 0.00 74 1014.8
20260901180105 88 83 3.0 9.0 0.00 0.00 0.00 76 1015.0
20260901174558 87 70 3.0 7.0 0.00 0.00 0.00 77 1015.3
20260901173105 87 77 3.0 8.0 0.00 0.00 0.00 78 1015.6
20260901171606 86 68 3.0 7.0 0.00 0.00 0.00 79 1015.9
20260901170108 86 6 3.0 6.0 0.00 0.00 0.00 80 1016.0
20260901164605 86 88 2.0 7.0 0.00 0.00 0.00 82 1016.2
20260901163107 86 108 2.0 7.0 0.00 0.00 0.00 82 1016.2
20260901161603 85 72 5.0 9.0 0.00 0.00 0.00 82 1016.1
20260901160122 86 56 2.0 9.0 0.00 0.00 0.00 82 1016.1
20260901154606 85 73 2.0 7.0 0.00 0.00 0.00 86 1016.0
20260901153108 85 0 0.0 4.0 0.00 0.00 0.00 91 1016.0
20260901151608 84 0 0.0 0.0 0.00 0.00 0.00 92 1015.9
20260901150057 84 0 0.0 0.0 0.00 0.00 0.00 93 1016.0
20260901144609 83 0 0.0 0.0 0.00 0.00 0.00 97 1016.2
20260901143113 81 0 0.0 0.0 0.00 0.00 0.00 97 1016.1
20260901141609 80 0 0.0 0.0 0.00 0.00 0.00 98 1016.1
20260901140110 80 0 0.0 0.0 0.00 0.00 0.00 99 1016.2
20260901134602 79 0 0.0 0.0 0.00 0.00 0.00 100 1016.3
20260901133101 78 0 0.0 0.0 0.00 0.00 0.00 100 1016.2
20260901131557 77 0 0.0 0.0 0.00 0.00 0.00 100 1016.0
20260901130057 77 0 0.0 0.0 0.00 0.00 0.00 100 1015.9
20260901124604 76 0 0.0 0.0 0.00 0.00 0.00 100 1015.5
20260901123121 76 0 0.0 0.0 0.00 0.00 0.00 100 1015.4
20260901121607 75 0 0.0 0.0 0.00 0.00 0.00 100 1015.2
20260901120057 75 0 0.0 0.0 0.00 0.00 0.00 100 1014.9
20260901114601 0 0.0 0.0 0.00 0.00 0.00 1014.7
20260901113106 0 0.0 0.0 0.00 0.00 0.00 1014.8
20260901111602 76 0 0.0 0.0 0.00 0.00 0.00 99 1014.9
20260901110111 76 0 0.0 0.0 0.00 0.00 0.00 99 1014.8
20260901104601 76 0 0.0 0.0 0.00 0.00 0.00 99 1014.7
20260901103116 76 0 0.0 0.0 0.00 0.00 0.00 99 1014.7
20260901101601 76 0 0.0 0.0 0.00 0.00 0.00 99 1014.6
20260901100113 76 0 0.0 0.0 0.00 0.00 0.00 99 1014.7
20260901094605 76 0 0.0 0.0 0.00 0.00 0.00 99 1014.6
20260901093111 76 0 0.0 0.0 0.00 0.00 0.00 99 1014.5
20260901091613 76 0 0.0 0.0 0.00 0.00 0.00 99 1014.7
20260901084556 77 0 0.0 0.0 0.00 0.00 0.00 99 1014.8
20260901083105 77 0 0.0 0.0 0.00 0.00 0.00 99 1014.9
20260901081603 77 0 0.0 0.0 0.00 0.00 0.00 99 1015.0
20260901074606 77 0 0.0 0.0 0.00 0.00 0.00 94 1015.3
20260901073101 77 0 0.0 0.0 0.00 0.00 0.00 94 1015.2
20260901071605 77 0 0.0 0.0 0.00 0.00 0.00 94 1015.2
20260901070115 77 0 0.0 0.0 0.00 0.00 0.00 94 1015.2
20260901064607 77 0 0.0 0.0 0.00 0.00 0.00 94 1015.3
20260901063103 78 0 0.0 0.0 0.00 0.00 0.00 94 1015.5
20260901061610 78 0 0.0 0.0 0.00 0.00 0.00 94 1015.3
20260901054609 79 0 0.0 0.0 0.00 0.00 0.00 93 1015.5
20260901053119 79 0 0.0 0.0 0.00 0.00 0.00 93 1015.3
20260901051610 79 0 0.0 0.0 0.00 0.00 0.00 93 1015.2
20260901050101 79 0 0.0 0.0 0.00 0.00 0.00 93 1015.0
20260901044617 80 0 0.0 0.0 0.00 0.00 0.00 92 1015.0
20260901043103 80 0 0.0 0.0 0.00 0.00 0.00 92 1014.8
20260901041559 80 0 0.0 0.0 0.00 0.00 0.00 92 1015.0
20260901040100 80 0 0.0 0.0 0.00 0.00 0.00 92 1014.9
20260901034607 80 0 0.0 0.0 0.00 0.00 0.00 91 1014.6
20260901033101 80 0 0.0 0.0 0.00 0.00 0.00 91 1014.5
20260901031602 80 0 0.0 0.0 0.00 0.00 0.00 89 1014.4
20260901030100 81 0 0.0 0.0 0.00 0.00 0.00 89 1014.5
20260901024610 81 0 0.0 0.0 0.00 0.00 0.00 87 1014.2
20260901023103 81 0 0.0 0.0 0.00 0.00 0.00 85 1014.0
20260901021559 82 0 0.0 0.0 0.00 0.00 0.00 84 1013.7
20260901020105 83 0 0.0 0.0 0.00 0.00 0.00 82 1013.6
20260901014604 84 0 0.0 0.0 0.00 0.00 0.00 80 1013.5
20260901013059 85 0 0.0 0.0 0.00 0.00 0.00 79 1013.6
20260901011606 86 0 0.0 2.0 0.00 0.00 0.00 77 1013.6
20260901010104 86 165 0.0 5.0 0.00 0.00 0.00 75 1013.7
20260901004605 87 232 0.0 2.0 0.00 0.00 0.00 75 1013.6
20260901003100 89 239 1.0 3.0 0.00 0.00 0.00 74 1013.6
20260901001607 90 0 1.0 5.0 0.00 0.00 0.00 72 1013.5
20260901000058 91 0 0.0 5.0 0.00 0.00 0.00 71 1013.5
20260831234605 91 17 1.0 7.0 0.00 0.00 0.00 68 1013.5
20260831233100 92 0 0.0 8.0 0.00 0.00 0.00 64 1013.5